TimeCST,TemperatureF,Dew PointF,Humidity,Sea Level PressureIn,VisibilityMPH,Wind Direction,Wind SpeedMPH,Gust SpeedMPH,PrecipitationIn,Events,Conditions,WindDirDegrees,DateUTC
12:15 AM,35.6,33.8,93,30.02,10.0,Calm,Calm,-,N/A,,Clear,0,2012-11-26 06:15:00
12:35 AM,35.6,33.8,93,30.01,10.0,Calm,Calm,-,N/A,,Clear,0,2012-11-26 06:35:00
12:55 AM,35.6,33.8,93,30.02,10.0,Calm,Calm,-,N/A,,Clear,0,2012-11-26 06:55:00
1:15 AM,33.8,33.8,100,30.01,10.0,Calm,Calm,-,N/A,,Clear,0,2012-11-26 07:15:00
1:35 AM,33.8,33.8,100,30.02,10.0,Calm,Calm,-,N/A,,Clear,0,2012-11-26 07:35:00
1:55 AM,33.8,33.8,100,30.02,10.0,Calm,Calm,-,N/A,,Clear,0,2012-11-26 07:55:00
2:15 AM,33.8,33.8,100,30.01,10.0,Calm,Calm,-,N/A,,Clear,0,2012-11-26 08:15:00
2:35 AM,33.8,33.8,100,30.01,10.0,Calm,Calm,-,N/A,,Clear,0,2012-11-26 08:35:00
2:55 AM,33.8,33.8,100,30.02,10.0,Calm,Calm,-,N/A,,Clear,0,2012-11-26 08:55:00
3:15 AM,33.8,33.8,100,30.01,9.0,Calm,Calm,-,N/A,,Clear,0,2012-11-26 09:15:00
3:35 AM,33.8,33.8,100,30.01,10.0,Calm,Calm,-,N/A,,Clear,0,2012-11-26 09:35:00
3:55 AM,33.8,33.8,100,30.01,9.0,Calm,Calm,-,N/A,,Clear,0,2012-11-26 09:55:00
4:15 AM,33.8,33.8,100,30.01,10.0,Calm,Calm,-,N/A,,Clear,0,2012-11-26 10:15:00
4:35 AM,33.8,33.8,100,30.01,10.0,Calm,Calm,-,N/A,,Clear,0,2012-11-26 10:35:00
4:55 AM,33.8,33.8,100,30.01,10.0,Calm,Calm,-,N/A,,Clear,0,2012-11-26 10:55:00
5:15 AM,33.8,33.8,100,30.01,10.0,Calm,Calm,-,N/A,,Partly Cloudy,0,2012-11-26 11:15:00
5:35 AM,33.8,33.8,100,30.01,10.0,Calm,Calm,-,N/A,,Partly Cloudy,0,2012-11-26 11:35:00
5:55 AM,33.8,33.8,100,30.01,10.0,Calm,Calm,-,N/A,,Partly Cloudy,0,2012-11-26 11:55:00
6:15 AM,35.6,33.8,93,30.01,10.0,Calm,Calm,-,N/A,,Scattered Clouds,0,2012-11-26 12:15:00
6:35 AM,35.6,33.8,93,30.02,10.0,Calm,Calm,-,N/A,,Scattered Clouds,0,2012-11-26 12:35:00
6:55 AM,35.6,33.8,93,30.02,10.0,Calm,Calm,-,N/A,,Scattered Clouds,0,2012-11-26 12:55:00
7:15 AM,35.6,33.8,93,30.03,10.0,Calm,Calm,-,N/A,,Scattered Clouds,0,2012-11-26 13:15:00
7:35 AM,35.6,35.6,100,30.04,10.0,Calm,Calm,-,N/A,,Overcast,0,2012-11-26 13:35:00
7:55 AM,37.4,35.6,93,30.04,10.0,Calm,Calm,-,N/A,,Overcast,0,2012-11-26 13:55:00
8:15 AM,37.4,35.6,93,30.04,10.0,Calm,Calm,-,N/A,,Overcast,0,2012-11-26 14:15:00
9:15 AM,42.8,37.4,81,30.06,10.0,Calm,Calm,-,N/A,,Overcast,0,2012-11-26 15:15:00
9:35 AM,44.6,37.4,76,30.05,10.0,Calm,Calm,-,N/A,,Overcast,0,2012-11-26 15:35:00
9:55 AM,44.6,39.2,81,30.05,10.0,Calm,Calm,-,N/A,,Overcast,0,2012-11-26 15:55:00
10:15 AM,46.4,41.0,81,30.06,10.0,Calm,Calm,-,N/A,,Overcast,0,2012-11-26 16:15:00
10:35 AM,46.4,39.2,76,30.06,10.0,Calm,Calm,-,N/A,,Overcast,0,2012-11-26 16:35:00
10:55 AM,50.0,41.0,71,30.05,10.0,Calm,Calm,-,N/A,,Overcast,0,2012-11-26 16:55:00
11:15 AM,51.8,41.0,67,30.05,10.0,Calm,Calm,-,N/A,,Overcast,0,2012-11-26 17:15:00
11:35 AM,53.6,42.8,67,30.04,10.0,Calm,Calm,-,N/A,,Overcast,0,2012-11-26 17:35:00
11:55 AM,53.6,42.8,67,30.03,10.0,Calm,Calm,-,N/A,,Overcast,0,2012-11-26 17:55:00
12:15 PM,55.4,44.6,67,30.03,9.0,Calm,Calm,-,N/A,,Overcast,0,2012-11-26 18:15:00
12:35 PM,55.4,46.4,72,30.02,8.0,Calm,Calm,-,N/A,,Overcast,0,2012-11-26 18:35:00
12:55 PM,55.4,46.4,72,30.02,7.0,Calm,Calm,-,N/A,,Overcast,0,2012-11-26 18:55:00
1:15 PM,57.2,46.4,67,30.02,8.0,Calm,Calm,-,N/A,,Overcast,0,2012-11-26 19:15:00
1:35 PM,57.2,46.4,67,30.02,7.0,Calm,Calm,-,N/A,,Overcast,0,2012-11-26 19:35:00
2:15 PM,57.2,48.2,72,30.02,6.0,Calm,Calm,-,N/A,,Haze,0,2012-11-26 20:15:00
2:35 PM,57.2,48.2,72,30.01,6.0,Calm,Calm,-,N/A,,Haze,0,2012-11-26 20:35:00
2:55 PM,57.2,48.2,72,30.02,5.0,Calm,Calm,-,N/A,,Haze,0,2012-11-26 20:55:00
3:15 PM,55.4,50.0,82,30.02,5.0,Calm,Calm,-,N/A,,Haze,0,2012-11-26 21:15:00
3:35 PM,55.4,48.2,77,30.04,5.0,North,3.5,-,N/A,,Haze,360,2012-11-26 21:35:00
3:55 PM,55.4,44.6,67,30.05,10.0,Calm,Calm,-,N/A,,Overcast,0,2012-11-26 21:55:00
4:15 PM,55.4,42.8,63,30.06,10.0,Calm,Calm,-,N/A,,Overcast,0,2012-11-26 22:15:00
4:35 PM,53.6,42.8,67,30.08,10.0,North,4.6,-,N/A,,Mostly Cloudy,350,2012-11-26 22:35:00
4:55 PM,53.6,42.8,67,30.10,10.0,North,4.6,-,N/A,,Mostly Cloudy,360,2012-11-26 22:55:00
5:15 PM,51.8,41.0,67,30.11,10.0,NNE,6.9,-,N/A,,Overcast,30,2012-11-26 23:15:00
5:35 PM,51.8,42.8,71,30.13,10.0,North,4.6,-,N/A,,Overcast,10,2012-11-26 23:35:00
5:55 PM,51.8,42.8,71,30.15,10.0,NNW,6.9,-,N/A,,Overcast,340,2012-11-26 23:55:00
6:15 PM,50.0,41.0,71,30.17,10.0,NNE,6.9,16.1,N/A,,Overcast,20,2012-11-27 00:15:00
6:35 PM,50.0,39.2,66,30.18,10.0,North,8.1,-,N/A,,Overcast,350,2012-11-27 00:35:00
6:55 PM,48.2,39.2,71,30.19,10.0,North,6.9,-,N/A,,Overcast,10,2012-11-27 00:55:00
7:15 PM,48.2,39.2,71,30.20,10.0,NNW,8.1,-,N/A,,Overcast,340,2012-11-27 01:15:00
7:35 PM,48.2,37.4,66,30.22,10.0,North,6.9,-,N/A,,Overcast,350,2012-11-27 01:35:00
7:55 PM,48.2,37.4,66,30.23,10.0,NNW,9.2,-,N/A,,Overcast,340,2012-11-27 01:55:00
8:15 PM,46.4,37.4,71,30.24,10.0,North,10.4,16.1,N/A,,Overcast,350,2012-11-27 02:15:00
8:35 PM,46.4,37.4,71,30.26,10.0,NNW,8.1,-,N/A,,Overcast,340,2012-11-27 02:35:00
8:55 PM,46.4,37.4,71,30.27,10.0,North,5.8,-,N/A,,Overcast,360,2012-11-27 02:55:00
9:15 PM,44.6,33.8,66,30.28,10.0,North,8.1,20.7,N/A,,Overcast,360,2012-11-27 03:15:00
9:35 PM,44.6,32.0,61,30.28,10.0,North,6.9,20.7,N/A,,Overcast,350,2012-11-27 03:35:00
9:55 PM,44.6,32.0,61,30.28,10.0,North,3.5,-,N/A,,Overcast,350,2012-11-27 03:55:00
10:15 PM,44.6,33.8,66,30.29,10.0,North,4.6,-,N/A,,Overcast,350,2012-11-27 04:15:00
10:35 PM,44.6,33.8,66,30.30,10.0,North,6.9,-,N/A,,Overcast,360,2012-11-27 04:35:00
10:55 PM,42.8,32.0,66,30.31,10.0,North,8.1,-,N/A,,Overcast,350,2012-11-27 04:55:00
11:15 PM,42.8,32.0,66,30.30,10.0,North,5.8,16.1,N/A,,Overcast,360,2012-11-27 05:15:00
11:35 PM,42.8,32.0,66,30.31,10.0,NNE,6.9,-,N/A,,Overcast,20,2012-11-27 05:35:00
11:55 PM,42.8,32.0,66,30.31,10.0,NNW,8.1,-,N/A,,Overcast,330,2012-11-27 05:55:00